Location: Little Lepreau Basin
(45.1272°N, 66.4616°W)
Time: 14:17:35
(UTC-03:00)

ISS - Visible Passes

Search period start: 21 September 2018 00:00
Search period end: 01 October 2018 00:00
Orbit: 403 x 408 km, 51.6° (Epoch: 21 September)

Date Brightness Start Highest point End Pass type
(mag) Time Alt. Az. Time Alt. Az. Time Alt. Az.
21 Sep -2.4 20:54:03 10° SSW 20:56:03 25° SSE 20:56:03 25° SSE visible
22 Sep -2.0 20:03:06 10° S 20:05:16 17° SE 20:07:01 12° E visible
22 Sep -1.9 21:38:08 10° WSW 21:39:45 26° WSW 21:39:45 26° WSW visible
23 Sep -3.9 20:46:19 10° SW 20:49:35 63° SE 20:50:28 42° E visible
24 Sep -3.1 19:54:45 10° SSW 19:57:48 35° SE 20:00:51 10° ENE visible
24 Sep -2.4 21:31:06 10° W 21:33:42 38° NW 21:33:42 38° NW visible
25 Sep -3.5 20:39:02 10° WSW 20:42:19 64° NNW 20:44:04 25° NE visible
25 Sep -0.4 22:16:23 10° WNW 22:16:46 12° WNW 22:16:46 12° WNW visible
26 Sep -3.8 19:47:06 10° SW 19:50:24 79° SSE 19:53:42 10° ENE visible
26 Sep -2.1 21:24:11 10° WNW 21:27:01 30° NNW 21:27:01 30° NNW visible
27 Sep -2.6 20:31:59 10° W 20:35:07 38° NNW 20:37:12 18° NE visible
27 Sep -0.4 22:09:23 10° WNW 22:09:52 13° NW 22:09:52 13° NW visible
28 Sep -3.2 19:39:51 10° WSW 19:43:05 54° NNW 19:46:21 10° NE visible
28 Sep -2.0 21:17:14 10° WNW 21:19:58 25° N 21:19:58 25° N visible
29 Sep -2.2 20:25:01 10° WNW 20:27:57 28° N 20:30:01 15° NE visible
29 Sep -0.5 22:02:08 10° NW 22:02:41 13° NW 22:02:41 13° NW visible
30 Sep -2.5 19:32:46 10° W 19:35:51 34° NNW 19:38:55 10° NE visible
30 Sep -2.0 21:10:06 10° NW 21:12:41 25° N 21:12:41 25° N visible
